[[{"header":{"parameterUnit":"m.s-1","parameterCategory":1,"la1":30.2991,"la2":30.254,"lo1":-89.0895,"lo2":-89.0444,"dy":0.0017,"dx":0.0017,"nx":28,"ny":28,"refTime":"2025-05-22T09:00:00:Z","depth":0,"parameterNumber":2,"parameterNumberName":"U-component_of_WINDS"},"data":[0,0,0,0,0,0,0,0,0,0,0,0,0,0,0,0,0,0,0,0,0,0,0,0,0,0,0,0,0,0,0,0,0,0,0,0,0,0,0,0,0,0,0,0,0,0,0,0,0,0,0,0,0,0,0,0,0,0,0.7272,0.7273,0,0.7357,0.7358,0.7359,0.738,0.738,0.7379,0.7379,0.7466,0.7468,0.7471,0,0,0,0,0,0,0,0,0,0,0,0,0,0.7125,0.7128,0.7272,0.7273,0.7274,0.7357,0.7358,0.7359,0.738,0.738,0.7379,0.7379,0.7465,0.7468,0.7471,0,0,0,0,0,0,0,0,0,0,0,0,0,0.7197,0.7128,0.7272,0.7294,0.7297,0.7357,0.7358,0.736,0.7381,0.738,0.7379,0.7378,0.7464,0.7468,0.7472,0.7514,0,0,0.7485,0.7487,0,0,0,0,0,0,0,0,0.7193,0.7203,0.729,0.7293,0.7296,0.7357,0.7338,0.7411,0.7381,0.7349,0.7379,0.7378,0.743,0.7437,0.7455,0.7518,0.7522,0.7485,0.7488,0.7489,0.7491,0,0,0,0,0,0,0,0.7188,0.7199,0.7306,0.7291,0.7295,0.73,0.7309,0.7352,0.7393,0.7352,0.7353,0.7363,0.7432,0.7451,0.7457,0.7523,0.7485,0.7489,0.7491,0.7493,0.7624,0.7625,0,0,0,0,0,0,0.7179,0.7195,0.7303,0.7308,0.7242,0.7303,0.7314,0.7339,0.7393,0.74,0.7364,0.7364,0.7444,0.7452,0.746,0.7512,0.7489,0.7493,0.7496,0.7623,0.7624,0.7625,0,0,0,0,0,0,0.7176,0.7189,0.7299,0.7252,0.7266,0.7307,0.7334,0.7341,0.736,0.7402,0.7409,0.7376,0.7444,0.7454,0.75,0.7516,0.7495,0.7499,0.7622,0.7623,0.7625,0.7618,0,0,0,0,0,0,0.7172,0.7188,0.7205,0.7252,0.7269,0.7339,0.7335,0.7343,0.7367,0.7368,0.7415,0.7422,0.7444,0.7494,0.7504,0.7521,0.7502,0.7621,0.7623,0.7624,0.7617,0.7619,0.762,0,0,0,0,0,0.7167,0.7199,0.7205,0.7218,0.7291,0.734,0.7349,0.7373,0.7368,0.7385,0.7412,0.7421,0.7512,0.7498,0.7511,0.7529,0.762,0.7622,0.7624,0.7616,0.7618,0.762,0,0,0,0,0,0,0.7153,0.7206,0.7213,0.7263,0.7296,0.7343,0.7365,0.7375,0.7411,0.741,0.7439,0.7449,0.7493,0.7516,0.7499,0.7572,0.7566,0.7571,0.7555,0.7558,0.756,0.7553,0.7506,0,0,0,0,0,0.7155,0.7191,0.7235,0.7275,0.7291,0.7325,0.7347,0.7363,0.7399,0.7413,0.7443,0.7478,0.7514,0.7537,0.7573,0.762,0.763,0.7638,0.764,0.7641,0.7645,0.767,0.7674,0.7632,0.7632,0.7632,0,0,0.7161,0.7195,0.7216,0.7273,0.7301,0.7335,0.7337,0.7375,0.7401,0.7419,0.7464,0.7487,0.7527,0.7573,0.7595,0.7593,0.7658,0.7644,0.7645,0.7648,0.7672,0.7676,0.768,0.7634,0.7633,0.7633,0,0,0.719,0.7219,0.7255,0.7282,0.7325,0.7347,0.7355,0.74,0.7416,0.7462,0.7476,0.7507,0.7569,0.7597,0.7619,0.7656,0.7664,0.7667,0.7676,0.77,0.7703,0.7706,0.7718,0.7722,0.767,0.767,0.767,0,0.7192,0.7246,0.7271,0.7308,0.7332,0.735,0.7385,0.7411,0.7462,0.7478,0.7475,0.7553,0.7581,0.7633,0.7642,0.766,0.7669,0.7661,0.7701,0.7704,0.7707,0.7719,0.7724,0.767,0.767,0.767,0.767,0,0.7246,0.7283,0.7306,0.7355,0.7382,0.7417,0.7447,0.7471,0.7484,0.7506,0.7552,0.7586,0.7628,0.7642,0.7655,0.7695,0.7693,0.7695,0.769,0.7711,0.7722,0.7727,0.767,0.767,0.767,0.767,0,0,0.7269,0.733,0.7338,0.736,0.7407,0.7436,0.7472,0.7513,0.7533,0.7567,0.7597,0.7649,0.7651,0.7676,0.7692,0.7713,0.7739,0.7713,0.7714,0.7715,0.7784,0.7781,0.7786,0.7745,0.7746,0.7746,0.778,0,0.7302,0.7367,0.7391,0.7444,0.7477,0.7494,0.7525,0.7557,0.7578,0.7609,0.7633,0.7668,0.7669,0.7684,0.7705,0.7731,0.7752,0.7729,0.7772,0.7773,0.7761,0.7792,0.779,0.782,0.7785,0.7785,0.7786,0,0.7351,0.7385,0.7442,0.7483,0.7498,0.7526,0.7565,0.7595,0.7631,0.7644,0.7672,0.7686,0.7723,0.7715,0.7766,0.7749,0.7768,0.7783,0.7785,0.779,0.7781,0.7797,0.7831,0.7835,0.7794,0.7793,0.7792,0,0.736,0.7421,0.7463,0.7481,0.7531,0.7549,0.7571,0.7606,0.7629,0.7663,0.7678,0.7715,0.7736,0.7764,0.7788,0.7781,0.7836,0.7831,0.7848,0.7847,0.7859,0.7858,0.7895,0.7872,0.7872,0.7872,0.7872,0,0.7395,0.7429,0.7467,0.7493,0.753,0.7556,0.7593,0.7615,0.7646,0.7675,0.7692,0.7719,0.7749,0.778,0.7799,0.7837,0.7846,0.7858,0.7862,0.7856,0.7854,0.7869,0.7867,0.7873,0.7873,0.7872,0.7872,0,0.7412,0.744,0.7486,0.7529,0.754,0.7566,0.7603,0.7627,0.7649,0.7686,0.7696,0.7729,0.7766,0.7793,0.784,0.7853,0.7894,0.7899,0.7882,0.7884,0.7899,0.7897,0.7946,0.7954,0.7926,0.7926,0.7926,0,0.7433,0.7459,0.7504,0.7525,0.7547,0.758,0.7603,0.7629,0.7653,0.7694,0.7714,0.7752,0.7783,0.7841,0.7869,0.7905,0.7911,0.7926,0.7916,0.7909,0.791,0.7908,0.791,0.7927,0.7927,0.7927,0.7927,0,0.7465,0.7477,0.751,0.7548,0.7575,0.7606,0.7637,0.7652,0.7684,0.7709,0.7747,0.7771,0.7819,0.7856,0.7895,0.7916,0.7927,0.793,0.7936,0.7929,0.7918,0.7923,0.7884,0.7929,0.7929,0.7928,0.7928,0.7928,0.7484,0.7507,0.7543,0.7579,0.7604,0.7633,0.7658,0.7682,0.7714,0.7755,0.7768,0.7807,0.7841,0.7894,0.7915,0.7945,0.7945,0.7953,0.7955,0.7957,0.7956,0.7913,0.7953,0.7953,0.7953,0.7953,0.7953,0,0.7516,0.754,0.7572,0.7615,0.7643,0.765,0.7685,0.7707,0.7741,0.7772,0.7802,0.7845,0.788,0.7911,0.7948,0.7966,0.7971,0.7974,0.7973,0.7978,0.7955,0.7946,0.7969,0.7969,0.7969,0.7969,0.7969,0.7969,0.7536,0.7576,0.7592,0.7644,0.7667,0.7705,0.7724,0.775,0.7774,0.7821,0.7851,0.787,0.7901,0.794,0.7972,0.798,0.7992,0.7994,0.8003,0.7981,0.7979,0.7977,0.7969,0.7997,0.7997,0.8023,0.8024,0.8024]},{"header":{"parameterUnit":"m.s-1","parameterCategory":1,"la1":30.2991,"la2":30.254,"lo1":-89.0895,"lo2":-89.0444,"dy":0.0017,"dx":0.0017,"nx":28,"ny":28,"refTime":"2025-05-22T09:00:00:Z","depth":0,"parameterNumber":3,"parameterNumberName":"V-component_of_WINDS"},"data":[0,0,0,0,0,0,0,0,0,0,0,0,0,0,0,0,0,0,0,0,0,0,0,0,0,0,0,0,0,0,0,0,0,0,0,0,0,0,0,0,0,0,0,0,0,0,0,0,0,0,0,0,0,0,0,0,0,0,3.9908,3.9907,0,3.9849,3.9848,3.9847,3.9742,3.974,3.9738,3.9737,3.9677,3.9677,3.9678,0,0,0,0,0,0,0,0,0,0,0,0,0,3.993,3.993,3.9908,3.9907,3.9907,3.9849,3.9848,3.9847,3.9743,3.974,3.9738,3.9736,3.9677,3.9677,3.9678,0,0,0,0,0,0,0,0,0,0,0,0,0,3.9901,3.993,3.9908,3.9847,3.9841,3.9849,3.9848,3.9847,3.9743,3.974,3.9737,3.9734,3.9677,3.9677,3.9678,3.974,0,0,3.9679,3.9679,0,0,0,0,0,0,0,0,3.9903,3.99,3.9857,3.9852,3.9845,3.98,3.9834,3.9811,3.9744,3.9781,3.9736,3.9733,3.972,3.9717,3.9712,3.9737,3.9735,3.9679,3.9679,3.9679,3.9679,0,0,0,0,0,0,0,3.9905,3.9902,3.9885,3.9857,3.9849,3.9823,3.9816,3.9829,3.9768,3.9777,3.9769,3.9764,3.9716,3.9712,3.971,3.9734,3.9679,3.9679,3.9679,3.968,3.9804,3.9807,0,0,0,0,0,0,3.9916,3.9905,3.9886,3.9883,3.9867,3.9825,3.9817,3.9817,3.9768,3.9757,3.9766,3.9759,3.9713,3.971,3.9708,3.9776,3.9679,3.968,3.968,3.9801,3.9805,3.9808,0,0,0,0,0,0,3.9917,3.9915,3.9889,3.9891,3.9886,3.9828,3.983,3.9818,3.9813,3.9759,3.9748,3.9773,3.9711,3.9707,3.9732,3.9772,3.968,3.968,3.9797,3.9802,3.9806,3.9914,0,0,0,0,0,0,3.9918,3.9916,3.994,3.9893,3.9886,3.9915,3.9832,3.9819,3.9814,3.9804,3.9763,3.9753,3.9708,3.9732,3.9733,3.9771,3.9681,3.9793,3.9799,3.9805,3.9906,3.9921,3.9934,0,0,0,0,0,3.9919,3.9973,3.9941,3.994,3.9914,3.9917,3.9914,3.986,3.9818,3.9841,3.9806,3.9755,3.9768,3.9736,3.9735,3.9775,3.9791,3.9798,3.9804,3.99,3.9918,3.9934,0,0,0,0,0,0,4.0027,3.9966,3.993,3.997,3.995,3.99,3.9927,3.9882,3.9873,3.9864,3.9798,3.979,3.9823,3.9801,3.9766,3.9831,3.9771,3.9778,3.9844,3.9861,3.9875,3.9879,3.9681,0,0,0,0,0,4.0055,4.0063,4.0009,4.005,4.0041,3.9986,3.9985,3.9946,3.9922,3.9912,3.9879,3.9858,3.9857,3.9858,3.9854,3.9903,3.9891,3.9929,3.9943,3.9955,3.9962,3.9984,4.0,3.9831,3.9831,3.983,0,0,4.0114,4.0082,4.009,4.007,4.005,4.0058,3.9979,3.9992,3.9998,3.9914,3.9935,3.991,3.9882,3.9918,3.9933,3.9901,4.0006,3.9964,3.9974,3.9974,3.9993,4.0009,4.0023,3.9835,3.9834,3.9834,0,0,4.0225,4.0202,4.0233,4.0213,4.0182,4.0145,4.0153,4.0109,4.0088,4.0108,4.0045,4.0051,4.0051,4.0033,4.0024,4.0126,4.0079,4.0127,4.02,4.0222,4.0236,4.0247,4.0282,4.0296,4.0134,4.0134,4.0135,0,4.0303,4.0313,4.0254,4.027,4.0263,4.0187,4.0217,4.0201,4.0171,4.0167,4.0132,4.0129,4.0105,4.0135,4.016,4.0156,4.0161,4.0131,4.0238,4.0249,4.0259,4.0292,4.0305,4.014,4.014,4.0139,4.0139,0,4.0409,4.0417,4.0445,4.0417,4.0412,4.0436,4.038,4.0382,4.0343,4.0309,4.0329,4.0297,4.0285,4.0289,4.0251,4.0314,4.0295,4.025,4.0189,4.0282,4.0312,4.0324,4.0149,4.0147,4.0145,4.0144,0,0,4.0587,4.0525,4.0536,4.0521,4.0481,4.0486,4.0505,4.0492,4.0495,4.0477,4.049,4.0491,4.0449,4.0439,4.0398,4.0418,4.0499,4.037,4.0368,4.0394,4.0563,4.0596,4.0612,4.0467,4.0469,4.0471,4.0565,0,4.0689,4.0718,4.0665,4.0706,4.0712,4.0639,4.0655,4.0632,4.0601,4.0601,4.0566,4.0567,4.0512,4.0505,4.0521,4.0486,4.0531,4.0478,4.0478,4.0479,4.0486,4.0627,4.0663,4.0753,4.0576,4.0578,4.058,0,4.0812,4.0798,4.084,4.0795,4.0796,4.0811,4.0794,4.0796,4.0767,4.0743,4.0731,4.0682,4.0696,4.0638,4.0656,4.0621,4.0617,4.06,4.0602,4.0599,4.0534,4.0627,4.0781,4.0795,4.0597,4.0596,4.0595,0,4.0936,4.0928,4.0951,4.0941,4.089,4.0903,4.0882,4.0851,4.0846,4.0831,4.0826,4.0814,4.0807,4.0798,4.0747,4.0709,4.0771,4.0708,4.075,4.0752,4.0766,4.0766,4.0921,4.0766,4.0766,4.0766,4.0765,0,4.1055,4.1083,4.1006,4.1021,4.1049,4.0988,4.1018,4.099,4.0962,4.0969,4.0906,4.0914,4.0846,4.0846,4.0806,4.0827,4.0825,4.0805,4.0793,4.081,4.0812,4.0806,4.0798,4.0769,4.0768,4.0768,4.0767,0,4.1198,4.1148,4.1168,4.1118,4.1106,4.1129,4.1085,4.1096,4.106,4.107,4.1068,4.1012,4.1009,4.0957,4.0943,4.0916,4.0952,4.093,4.0962,4.0954,4.0999,4.0995,4.1154,4.1172,4.1008,4.1009,4.1011,0,4.1277,4.1296,4.1248,4.1247,4.1229,4.1231,4.1224,4.1164,4.1161,4.1129,4.1143,4.1135,4.1125,4.1123,4.108,4.1069,4.1045,4.1101,4.1043,4.1058,4.1044,4.1043,4.1044,4.1114,4.1116,4.1118,4.1119,0,4.1421,4.1395,4.1389,4.1374,4.1369,4.1354,4.1335,4.1339,4.1272,4.1272,4.1267,4.1259,4.1244,4.1236,4.1217,4.1194,4.1146,4.1138,4.1147,4.1163,4.1181,4.117,4.0995,4.1135,4.1133,4.1132,4.1131,4.113,4.1534,4.1547,4.1514,4.1509,4.1488,4.1472,4.1479,4.1443,4.1439,4.1421,4.1386,4.1387,4.1356,4.1324,4.1306,4.1305,4.1276,4.129,4.1293,4.1297,4.1305,4.1181,4.1302,4.1301,4.1301,4.13,4.13,0,4.1674,4.1649,4.1644,4.162,4.1615,4.1569,4.1546,4.1545,4.1547,4.1522,4.1513,4.1507,4.1498,4.1455,4.1441,4.1449,4.1426,4.1447,4.1446,4.1441,4.1333,4.1326,4.1466,4.1466,4.1466,4.1466,4.1466,4.1465,4.1746,4.1765,4.1735,4.1744,4.1718,4.1718,4.1708,4.1692,4.1672,4.1668,4.166,4.1632,4.1599,4.1582,4.1572,4.1559,4.1556,4.1585,4.1565,4.1465,4.1449,4.1434,4.1427,4.1585,4.1585,4.1673,4.1674,4.1674]}]]